Powrót do katalogu

THOR 6

AktywnyŁącznośćGEO
NORAD 36033·PAYLOAD·🇳🇴 Norway

Wystrzelony Oct 29, 2009 z Guiana Space Centre

Loading…

TLE

ŚwieżeSource: Space-Track

Epoka: Sep 14, 2026, 13:48 UTC

1 36033U 09058B   26257.57501435 -.00000017  00000-0  00000-0 0  9998
2 36033   0.0105 142.2442 0001745  33.5522  23.9257  1.00272621 61904

Śledź THOR 6 w czasie rzeczywistym z AllMySat

Download on the App Store